This is the latest recevied weather packets stored in our database for station/object YM2KV-13. If no packets are shown the sender has not sent any weather packets the latest 10 day(s).
| Time | Temp. | Humidity | Pressure | Rain* | Wind** | Luminosity | Snow |
|---|---|---|---|---|---|---|---|
| 1777406298 | 7.22° C | 83% | 1029.3 hPa | - | - | - | - |
| 1777405698 | 7.22° C | 84% | 1029.4 hPa | - | - | - | - |
| 1777405098 | 7.22° C | 83% | 1029.5 hPa | - | - | - | - |
| 1777404498 | 7.22° C | 82% | 1029.4 hPa | - | - | - | - |
| 1777403898 | 7.22° C | 82% | 1029.4 hPa | - | - | - | - |
| 1777403298 | 7.22° C | 83% | 1029.4 hPa | - | - | - | - |
| 1777402698 | 7.78° C | 80% | 1029.4 hPa | - | - | - | - |
| 1777402098 | 8.33° C | 79% | 1029.4 hPa | - | - | - | - |
| 1777401498 | 8.33° C | 79% | 1029.4 hPa | - | - | - | - |
| 1777400898 | 8.89° C | 78% | 1029.3 hPa | - | - | - | - |
| 1777400298 | 9.44° C | 77% | 1029.2 hPa | - | - | - | - |
| 1777399698 | 9.44° C | 78% | 1029.1 hPa | - | - | - | - |
| 1777399098 | 9.44° C | 79% | 1029 hPa | - | - | - | - |
| 1777398498 | 9.44° C | 79% | 1028.8 hPa | - | - | - | - |
| 1777397898 | 10° C | 79% | 1028.7 hPa | - | - | - | - |
| 1777397298 | 10° C | 78% | 1028.6 hPa | - | - | - | - |
| 1777396698 | 11.11° C | 75% | 1028.6 hPa | - | - | - | - |
| 1777396098 | 11.11° C | 74% | 1028.4 hPa | - | - | - | - |
| 1777395498 | 11.67° C | 74% | 1028.3 hPa | - | - | - | - |
| 1777394898 | 11.67° C | 73% | 1028.3 hPa | - | - | - | - |
| 1777394298 | 12.22° C | 72% | 1028.2 hPa | - | - | - | - |
| 1777393698 | 12.22° C | 71% | 1028.2 hPa | - | - | - | - |
| 1777393098 | 12.22° C | 70% | 1028.1 hPa | - | - | - | - |
| 1777392498 | 12.78° C | 69% | 1028 hPa | - | - | - | - |
| 1777391898 | 13.33° C | 68% | 1027.9 hPa | - | - | - | - |
* Rain since midnight (hover to see other rain measurements)
** Current wind speed in m/s (hover to see current wind gust speed)